Regional Weather Roundup
Issued by NWS Little Rock, AR

Home | Current Version | Previous Version | Text Only | Print | Product List | Glossary Off
Versions: 1 2 3 4 5 6 7 8 9 10 11 12 13 14 15 16 17 18 19 20 21 22 23 24 25 26 27 28 29 30 31 32 33 34 35 36 37 38 39 40 41 42 43 44 45 46 47 48 49 50

000
ASUS44 KLZK 220105
RWRLZK

WEATHER ROUNDUP FOR ARKANSAS
NATIONAL WEATHER SERVICE LITTLE ROCK AR
800 PM CDT MON JUL 21 2014

NOTE: "FAIR" INDICATES FEW OR NO CLOUDS BELOW 12,000 FEET WITH NO
SIGNIFICANT WEATHER AND/OR OBSTRUCTIONS TO VISIBILITY.

ARZ001-003-010-029-220200-
NORTHWEST ARKANSAS

CITY           SKY/WX    TMP DP  RH WIND       PRES   REMARKS
FAYETTEVILLE   CLEAR     81  71  71 S8        30.04S HX  85
FORT SMITH     CLEAR     85  70  60 E7        30.00S HX  89
HARRISON       CLEAR     80  69  69 S6        30.05F
BENTONVILLE    CLEAR     84  70  61 SW5       30.04F HX  88
ROGERS         CLEAR     85  71  63 SE3       30.04F HX  90
SILOAM SPGS    CLEAR     82  70  65 S7        30.04S HX  86
HIGHFILL       CLEAR     83  72  69 S5        30.03F HX  88
SPRINGDALE     PTCLDY    86  72  62 S6        30.05F HX  92
$$

ARZ004-005-016-220200-
NORTH CENTRAL ARKANSAS

CITY           SKY/WX    TMP DP  RH WIND       PRES   REMARKS
BATESVILLE     CLEAR     81  66  61 E5        30.04S
FLIPPIN        CLEAR     81  64  57 SE3       30.04F
MTN HOME       CLEAR     78  68  71 SE3       30.03F
$$

ARZ040-041-220200-
WEST CENTRAL ARKANSAS

CITY           SKY/WX    TMP DP  RH WIND       PRES   REMARKS
MENA           CLEAR     82  73  74 CALM      30.04S HX  88
MOUNT IDA      CLEAR     77  71  82 CALM      30.02F
$$

ARZ009-017-025-026-028-220200-
NORTHEAST ARKANSAS

CITY           SKY/WX    TMP DP  RH WIND       PRES   REMARKS
CORNING        FAIR      79  72  78 SE6       30.06S
JONESBORO      CLEAR     80  65  59 CALM      30.05R
NEWPORT        CLEAR     81  67  62 SE3       30.05F
WALNUT RIDGE   CLEAR     81  64  57 E5        30.04S
BLYTHEVILLE    CLEAR     80  66  62 E3        30.05S
$$

ARZ022-023-033-042-044-220200-
CENTRAL ARKANSAS

CITY           SKY/WX    TMP DP  RH WIND       PRES   REMARKS
LITTLE ROCK    PTCLDY    80  67  64 SE6       30.03S
N LITTLE ROCK  PTCLDY    80  70  70 E5        30.03S
JACKSONVILLE   CLEAR     80  71  72 SE2       30.03S
SEARCY         CLEAR     80  69  69 SW3       30.04S
HOT SPRINGS    CLEAR     81  68  64 CALM      30.03F
RUSSELLVILLE   CLEAR     80  72  76 CALM      30.01F
CLINTON        FAIR      79  73  83 CALM      30.03F
$$

ARZ036-220200-
EAST ARKANSAS

CITY           SKY/WX    TMP DP  RH WIND       PRES   REMARKS
WEST MEMPHIS   CLEAR     79  68  69 NE6       30.04R
$$

ARZ050-053-066-070-073-220200-
SOUTHWEST ARKANSAS

CITY           SKY/WX    TMP DP  RH WIND       PRES   REMARKS
ARKADELPHIA    FAIR      82  73  74 CALM      30.02S HX  87
CAMDEN         PTCLDY    81  72  74 CALM      30.01S
TEXARKANA      CLEAR     80  71  74 CALM      30.02F
EL DORADO      CLEAR     77  74  90 NW3       30.02S
DE QUEEN       PTCLDY    82  72  71 SE3       30.00S HX  87
$$

ARZ056-057-069-220200-
SOUTHEAST ARKANSAS

CITY           SKY/WX    TMP DP  RH WIND       PRES   REMARKS
PINE BLUFF     CLEAR     78  71  79 E5        30.04R
STUTTGART      CLEAR     81  70  69 NE5       30.05R
MONTICELLO     CLEAR     79  72  79 CALM      30.03S

$$




USA.gov is the U.S. government's official web portal to all federal, state and local government web resources and services.